Satellite: NOAA-11
Catalog number: 19531
Epoch time: 07168.27299087
Element set: 692
Inclination: 098.8124 deg
RA of node: 257.4351 deg
Eccentricity: 0.0012127
Arg of perigee: 034.6508 deg
Mean anomaly: 325.5428 deg
Mean motion: 14.14846445 rev/day
Decay rate: -1.50e-06 rev/day^2
Epoch rev: 96616
Checksum: 317
Satellite: NOAA-12
Catalog number: 21263
Epoch time: 07168.37332255
Element set: 189
Inclination: 098.7508 deg
RA of node: 165.6133 deg
Eccentricity: 0.0013811
Arg of perigee: 105.9811 deg
Mean anomaly: 254.2915 deg
Mean motion: 14.25537083 rev/day
Decay rate: 2.93e-06 rev/day^2
Epoch rev: 83627
Checksum: 304
Satellite: MET-3/5
Catalog number: 21655
Epoch time: 07168.85611826
Element set: 280
Inclination: 082.5558 deg
RA of node: 002.4727 deg
Eccentricity: 0.0012498
Arg of perigee: 202.4854 deg
Mean anomaly: 157.5722 deg
Mean motion: 13.17011530 rev/day
Decay rate: 5.1e-07 rev/day^2
Epoch rev: 76149
Checksum: 295
Satellite: MET-2/21
Catalog number: 22782
Epoch time: 07168.51364587
Element set: 852
Inclination: 082.5483 deg
RA of node: 041.6578 deg
Eccentricity: 0.0021002
Arg of perigee: 233.6669 deg
Mean anomaly: 126.2545 deg
Mean motion: 13.83618169 rev/day
Decay rate: 9.9e-07 rev/day^2
Epoch rev: 69656
Checksum: 335
Satellite: OKEAN-4
Catalog number: 23317
Epoch time: 07168.78764523
Element set: 291
Inclination: 082.5392 deg
RA of node: 295.9718 deg
Eccentricity: 0.0020498
Arg of perigee: 249.4663 deg
Mean anomaly: 110.4370 deg
Mean motion: 14.82511140 rev/day
Decay rate: 1.13e-06 rev/day^2
Epoch rev: 68414
Checksum: 304
Satellite: NOAA-14
Catalog number: 23455
Epoch time: 07168.43335003
Element set: 671
Inclination: 098.9889 deg
RA of node: 234.6201 deg
Eccentricity: 0.0010445
Arg of perigee: 100.0393 deg
Mean anomaly: 260.1945 deg
Mean motion: 14.13721945 rev/day
Decay rate: 7.4e-07 rev/day^2
Epoch rev: 64267
Checksum: 291
Satellite: SICH-1
Catalog number: 23657
Epoch time: 07168.42352743
Element set: 92
Inclination: 082.5289 deg
RA of node: 077.2595 deg
Eccentricity: 0.0022220
Arg of perigee: 241.6364 deg
Mean anomaly: 118.2603 deg
Mean motion: 14.81492695 rev/day
Decay rate: 1.49e-06 rev/day^2
Epoch rev: 63606
Checksum: 305
Satellite: NOAA-15
Catalog number: 25338
Epoch time: 07168.38244453
Element set: 33
Inclination: 098.5282 deg
RA of node: 165.0590 deg
Eccentricity: 0.0011227
Arg of perigee: 034.0194 deg
Mean anomaly: 326.1730 deg
Mean motion: 14.24648881 rev/day
Decay rate: 1.91e-06 rev/day^2
Epoch rev: 47271
Checksum: 292
Satellite: RESURS
Catalog number: 25394
Epoch time: 07168.55972585
Element set: 666
Inclination: 098.4383 deg
RA of node: 223.0741 deg
Eccentricity: 0.0001323
Arg of perigee: 148.5885 deg
Mean anomaly: 211.5374 deg
Mean motion: 14.24138455 rev/day
Decay rate: -5.0e-08 rev/day^2
Epoch rev: 46440
Checksum: 306
Satellite: FENGYUN1
Catalog number: 25730
Epoch time: 07166.50165944
Element set: 143
Inclination: 098.6858 deg
RA of node: 150.4312 deg
Eccentricity: 0.0021672
Arg of perigee: 129.8613 deg
Mean anomaly: 230.4453 deg
Mean motion: 14.07528236 rev/day
Decay rate: 6.20e-06 rev/day^2
Epoch rev: 41723
Checksum: 281
Satellite: OKEAN-0
Catalog number: 25860
Epoch time: 07168.57152369
Element set: 79
Inclination: 097.7296 deg
RA of node: 170.8024 deg
Eccentricity: 0.0001781
Arg of perigee: 052.7867 deg
Mean anomaly: 307.3498 deg
Mean motion: 14.73458870 rev/day
Decay rate: 6.5e-07 rev/day^2
Epoch rev: 42555
Checksum: 335
Satellite: NOAA-16
Catalog number: 26536
Epoch time: 07168.47311646
Element set: 447
Inclination: 099.1151 deg
RA of node: 145.4194 deg
Eccentricity: 0.0010621
Arg of perigee: 167.8411 deg
Mean anomaly: 192.2993 deg
Mean motion: 14.12434476 rev/day
Decay rate: 1.44e-06 rev/day^2
Epoch rev: 34714
Checksum: 299
Satellite: NOAA-17
Catalog number: 27453
Epoch time: 07168.44847727
Element set: 457
Inclination: 098.5798 deg
RA of node: 237.7439 deg
Eccentricity: 0.0012877
Arg of perigee: 094.4600 deg
Mean anomaly: 265.8078 deg
Mean motion: 14.23887732 rev/day
Decay rate: 2.39e-06 rev/day^2
Epoch rev: 25875
Checksum: 371
Satellite: NOAA-18
Catalog number: 28654
Epoch time: 07168.46597686
Element set: 993
Inclination: 098.8289 deg
RA of node: 109.7446 deg
Eccentricity: 0.0013327
Arg of perigee: 268.1143 deg
Mean anomaly: 091.8505 deg
Mean motion: 14.11072735 rev/day
Decay rate: 3.50e-06 rev/day^2
Epoch rev: 10689
Checksum: 345
/EX
SB KEPS @ AMSAT $ORB07168.M
Orbital Elements 07168.MISC
HR AMSAT ORBITAL ELEMENTS FOR MANNED AND MISCELLANEOUS SATELLITES
FROM WA5QGD FORT WORTH,TX June 17, 2007
Send SUBSCRIBE KEPS/UNSUBSCRIBE KEPS to majordomo at amsat.org only
BID: ORB07168.M
TO ALL RADIO AMATEURS BT
Satellite: HUBBLE
Catalog number: 20580
Epoch time: 07168.20766217
Element set: 897
Inclination: 028.4682 deg
RA of node: 189.9951 deg
Eccentricity: 0.0003631
Arg of perigee: 103.5893 deg
Mean anomaly: 256.5100 deg
Mean motion: 15.00252048 rev/day
Decay rate: 3.65e-06 rev/day^2
Epoch rev: 73996
Checksum: 309
Satellite: UARS
Catalog number: 21701
Epoch time: 07167.89328654
Element set: 93
Inclination: 056.9747 deg
RA of node: 315.2153 deg
Eccentricity: 0.0092083
Arg of perigee: 187.9142 deg
Mean anomaly: 172.0467 deg
Mean motion: 15.48266888 rev/day
Decay rate: 6.168e-05 rev/day^2
Epoch rev: 86570
Checksum: 339
Satellite: PO-34
Catalog number: 25520
Epoch time: 07168.89896526
Element set: 758
Inclination: 028.4592 deg
RA of node: 103.9869 deg
Eccentricity: 0.0005393
Arg of perigee: 259.7630 deg
Mean anomaly: 100.2352 deg
Mean motion: 15.17010769 rev/day
Decay rate: 4.92e-06 rev/day^2
Epoch rev: 47763
Checksum: 336
Satellite: ISS
Catalog number: 25544
Epoch time: 07168.95487691
Element set: 413
Inclination: 051.6350 deg
RA of node: 099.9358 deg
Eccentricity: 0.0007781
Arg of perigee: 333.2178 deg
Mean anomaly: 149.5394 deg
Mean motion: 15.78264740 rev/day
Decay rate: 1.4738e-04 rev/day^2
Epoch rev: 49089
Checksum: 351
Satellite: OO-38
Catalog number: 26063
Epoch time: 07168.03019181
Element set: 936
Inclination: 100.2267 deg
RA of node: 170.6234 deg
Eccentricity: 0.0036885
Arg of perigee: 159.5711 deg
Mean anomaly: 200.6955 deg
Mean motion: 14.35808351 rev/day
Decay rate: .00000000 rev/day^2
Epoch rev: 38702
Checksum: 279
Satellite: UWE-1
Catalog number: 28892
Epoch time: 07168.76013440
Element set: 774
Inclination: 098.1324 deg
RA of node: 065.3947 deg
Eccentricity: 0.0018399
Arg of perigee: 109.0632 deg
Mean anomaly: 251.2562 deg
Mean motion: 14.59514109 rev/day
Decay rate: 2.34e-06 rev/day^2
Epoch rev: 8729
Checksum: 314
Satellite: CO-58
Catalog number: 28895
Epoch time: 07168.73878808
Element set: 753
Inclination: 098.1345 deg
RA of node: 065.5851 deg
Eccentricity: 0.0018917
Arg of perigee: 109.3440 deg
Mean anomaly: 250.9825 deg
Mean motion: 14.59560353 rev/day
Decay rate: 8.2e-07 rev/day^2
Epoch rev: 8717
Checksum: 354
Satellite: NCUBE2
Catalog number: 28897
Epoch time: 07168.19661137
Element set: 278
Inclination: 098.1322 deg
RA of node: 065.0101 deg
Eccentricity: 0.0017944
Arg of perigee: 111.6838 deg
Mean anomaly: 248.6271 deg
Mean motion: 14.59722931 rev/day
Decay rate: 1.30e-06 rev/day^2
Epoch rev: 7937
Checksum: 312
Satellite: NMARS
Catalog number: 29662
Epoch time: 07126.39603970
Element set: 263
Inclination: 051.6121 deg
RA of node: 302.3682 deg
Eccentricity: 0.0004459
Arg of perigee: 252.1654 deg
Mean anomaly: 110.7411 deg
Mean motion: 16.47981436 rev/day
Decay rate: 7.031946e-02 rev/day^2
Epoch rev: 2165
Checksum: 289
Satellite: FCAL
Catalog number: 29667
Epoch time: 07168.20230590
Element set: 170
Inclination: 051.6334 deg
RA of node: 094.2144 deg
Eccentricity: 0.0013889
Arg of perigee: 352.1028 deg
Mean anomaly: 007.9755 deg
Mean motion: 15.88235382 rev/day
Decay rate: 1.5240e-04 rev/day^2
Epoch rev: 2800
Checksum: 284
Satellite: FALCON
Catalog number: 30776
Epoch time: 07168.51956181
Element set: 75
Inclination: 035.4334 deg
RA of node: 210.6487 deg
Eccentricity: 0.0000591
Arg of perigee: 050.1850 deg
Mean anomaly: 309.8918 deg
Mean motion: 15.02723175 rev/day
Decay rate: 2.67e-06 rev/day^2
Epoch rev: 1510
Checksum: 279
Satellite: MAST
Catalog number: 31126
Epoch time: 07168.12039198
Element set: 58
Inclination: 098.0839 deg
RA of node: 241.2407 deg
Eccentricity: 0.0095654
Arg of perigee: 026.3619 deg
Mean anomaly: 334.2388 deg
Mean motion: 14.53347091 rev/day
Decay rate: 3.94e-06 rev/day^2
Epoch rev: 884
Checksum: 307
Satellite: CAPE1
Catalog number: 31130
Epoch time: 07168.18269487
Element set: 46
Inclination: 098.0857 deg
RA of node: 241.1603 deg
Eccentricity: 0.0103278
Arg of perigee: 026.7860 deg
Mean anomaly: 333.8640 deg
Mean motion: 14.51859600 rev/day
Decay rate: 1.49e-06 rev/day^2
Epoch rev: 861
Checksum: 294
/EX
More information about the Keps
mailing list